Regional Weather Roundup
Issued by NWS

Home | Current Version | Previous Version | Graphics & Text | Print | Product List | Glossary On
Versions: 1 2 3 4 5 6 7 8 9 10 11 12 13 14 15 16 17 18 19 20 21 22 23 24 25 26 27 28 29 30 31 32 33 34 35 36 37 38 39 40 41 42 43 44 45 46 47 48 49 50
000
ASUS43 KLMK 211202
RWRKY
KENTUCKY REGIONAL WEATHER ROUNDUP
NATIONAL WEATHER SERVICE LOUISVILLE KY
800 AM EDT MON MAY 21 2018

NOTE "FAIR" INDICATES FEW OR NO CLOUDS BELOW 12,000 FEET
WITH NO SIGNIFICANT WEATHER AND/OR OBSTRUCTIONS TO VISIBILITY.

KYZ001>023-026-027-061>063-070>075-211300-
WESTERN AND SOUTH CENTRAL KENTUCKY

CITY           SKY/WX    TMP DP  RH WIND       PRES   REMARKS
PADUCAH        PTSUNNY   69  66  90 CALM      30.08S
HENDERSON      NOT AVBL
OWENSBORO      FAIR      70  67  90 SE6       30.12R
HOPKINSVILLE   CLOUDY    69  68  98 CALM      30.12R
BOWLING GREEN  FAIR      70  68  93 NW6       30.13R
GLASGOW        NOT AVBL
$$

KYZ024-025-028>034-038-045-046-053-211300-
NORTH CENTRAL KENTUCKY

CITY           SKY/WX    TMP DP  RH WIND       PRES   REMARKS
LOUISVILLE/SDF PTSUNNY   73  66  78 W5        30.12R
LOUISVILLE/LOU FAIR      71  68  90 CALM      30.13R
FORT KNOX      FAIR      66  66 100 S5        30.15R
$$

KYZ035>037-039>044-047>052-055>060-089>105-211300-
NORTHEAST KENTUCKY

CITY           SKY/WX    TMP DP  RH WIND       PRES   REMARKS
LEXINGTON      FAIR      68  64  87 S5        30.13S
COVINGTON      CLOUDY    67  63  87 E8        30.13R
FRANKFORT      FAIR      70  65  84 CALM      30.12R
$$

KYZ054-064>069-076>088-106>120-211300-
SOUTHEAST KENTUCKY

CITY           SKY/WX    TMP DP  RH WIND       PRES   REMARKS
JACKSON        FAIR      69  65  86 CALM      30.17R
LONDON         FAIR      66  65  96 CALM      30.17R
SOMERSET       NOT AVBL
MIDDLESBORO    CLOUDY    63  63 100 CALM      30.20R
MONTICELLO     FAIR      68  65  90 N10       30.17R
$$




USA.gov is the U.S. government's official web portal to all federal, state and local government web resources and services.